Corning, AR

5:06 AM CDT on July 27, 2017 (GMT -0500)
Corning

Weather History for K4M9 - October, 2012

Change the Weather History Date:

Wednesday, October 17, 2012

  Actual Average (KARG) Record (KARG)
Temperature  
Mean Temperature 65 °F -  
Max Temperature 75 °F 69 °F 87 °F (2016)
Min Temperature 55 °F 48 °F 35 °F (2001)
Growing Degree Days 15 (Base 50)    
Moisture  
Dew Point 58 °F    
Average Humidity 80    
Maximum Humidity 100    
Minimum Humidity 61    
Precipitation  
Precipitation 0.07 in - - ()
Sea Level Pressure  
Sea Level Pressure 29.63 in    
Wind  
Wind Speed 13 mph (SSW)    
Max Wind Speed 30 mph    
Max Gust Speed 39 mph    
Visibility 9 miles    
Events Fog , Rain , Thunderstorm    
Averages and records for this station are not official NWS values.
T = Trace of Precipitation, MM = Missing Value Source: NWS Daily Summary

Daily Weather History Graph

Daily Weather History Graph

Search for Another Location

Airport or City:

Trip Planner

Search our weather history database for the weather conditions in past years. The results will help you decide how hot, cold, wet, or windy it might be!

Date:

Astronomy

Oct. 17, 2012 Rise Set
Actual Time 7:11 AM CDT 6:23 PM CDT
Civil Twilight 6:45 AM CDT 6:49 PM CDT
Nautical Twilight 6:15 AM CDT 7:19 PM CDT
Astronomical Twilight 5:46 AM CDT 7:48 PM CDT
Moon 9:41 AM CDT (10/17) 8:04 PM CDT (10/17)
Length of Visible Light 12h 03m
Length of Day
11h 11m
Waxing Crescent, 7% of the Moon is Illuminated
Oct 17
Waxing Crescent
Oct 21
First Quarter
Oct 29
Full
Nov 6
Last Quarter
Nov 13
New

Hourly Weather History & Observations

Time (CDT) Temp. Dew Point Humidity Pressure Visibility Wind Dir Wind Speed Gust Speed Precip Events Conditions
12:15 AM 59.0 °F 53.6 °F 82% 29.76 in 10.0 mi South 10.4 mph - N/A   Unknown
12:35 AM 57.2 °F 53.6 °F 88% 29.76 in 10.0 mi South 9.2 mph - N/A   Unknown
12:55 AM 57.2 °F 53.6 °F 88% 29.76 in 10.0 mi South 8.1 mph - N/A   Unknown
1:15 AM 57.2 °F 53.6 °F 88% 29.75 in 10.0 mi South 8.1 mph - N/A   Unknown
1:35 AM 55.4 °F 53.6 °F 94% 29.75 in 10.0 mi SE 6.9 mph - N/A   Unknown
1:55 AM 55.4 °F 51.8 °F 88% 29.74 in 10.0 mi SE 8.1 mph - N/A   Unknown
2:15 AM 55.4 °F 51.8 °F 88% 29.74 in 10.0 mi SE 8.1 mph - N/A   Unknown
2:35 AM 55.4 °F 51.8 °F 88% 29.73 in 10.0 mi South 4.6 mph - N/A   Unknown
2:55 AM 57.2 °F 53.6 °F 88% 29.72 in 10.0 mi South 9.2 mph - N/A   Unknown
3:15 AM 57.2 °F 53.6 °F 88% 29.71 in 10.0 mi South 8.1 mph - N/A   Unknown
3:35 AM 57.2 °F 53.6 °F 88% 29.70 in 10.0 mi South 9.2 mph - N/A   Unknown
3:55 AM 59.0 °F 53.6 °F 82% 29.70 in 10.0 mi South 10.4 mph - N/A   Unknown
4:15 AM 59.0 °F 53.6 °F 82% 29.69 in 10.0 mi South 12.7 mph - N/A   Unknown
5:15 AM 59.0 °F 53.6 °F 82% 29.69 in 10.0 mi South 13.8 mph 18.4 mph N/A   Unknown
5:35 AM 60.8 °F 53.6 °F 77% 29.69 in 10.0 mi South 13.8 mph - N/A   Unknown
5:55 AM 60.8 °F 55.4 °F 82% 29.69 in 10.0 mi South 13.8 mph - N/A   Unknown
6:15 AM 62.6 °F 55.4 °F 77% 29.69 in 10.0 mi South 16.1 mph 21.9 mph N/A   Unknown
6:35 AM 62.6 °F 55.4 °F 77% 29.69 in 10.0 mi South 16.1 mph - N/A   Unknown
6:55 AM 62.6 °F 55.4 °F 77% 29.69 in 10.0 mi South 16.1 mph 21.9 mph N/A   Unknown
7:15 AM 60.8 °F 55.4 °F 82% 29.68 in 10.0 mi South 12.7 mph 16.1 mph N/A   Unknown
7:35 AM 60.8 °F 55.4 °F 82% 29.68 in 10.0 mi SE 5.8 mph 16.1 mph N/A   Unknown
7:55 AM 59.0 °F 55.4 °F 88% 29.68 in 10.0 mi SSE 5.8 mph - N/A   Unknown
8:15 AM 60.8 °F 55.4 °F 82% 29.68 in 10.0 mi South 11.5 mph - N/A   Unknown
8:35 AM 62.6 °F 55.4 °F 77% 29.68 in 10.0 mi South 11.5 mph - N/A   Unknown
8:55 AM 62.6 °F 55.4 °F 77% 29.68 in 10.0 mi South 13.8 mph 19.6 mph N/A   Unknown
9:15 AM 66.2 °F 57.2 °F 73% 29.68 in 10.0 mi South 16.1 mph 19.6 mph N/A   Unknown
9:35 AM 68.0 °F 57.2 °F 68% 29.67 in 10.0 mi South 25.3 mph 32.2 mph N/A   Unknown
9:55 AM 69.8 °F 57.2 °F 64% 29.66 in 10.0 mi SSW 21.9 mph 32.2 mph N/A   Unknown
10:15 AM 69.8 °F 57.2 °F 64% 29.66 in 10.0 mi SSW 24.2 mph 32.2 mph N/A   Unknown
10:35 AM 68.0 °F 57.2 °F 68% 29.66 in 10.0 mi SSW 27.6 mph 34.5 mph N/A   Unknown
10:55 AM 71.6 °F 59.0 °F 64% 29.66 in 10.0 mi SSW 23.0 mph 33.4 mph N/A   Unknown
11:35 AM 73.4 °F 59.0 °F 61% 29.64 in 10.0 mi SSW 29.9 mph 39.1 mph N/A   Unknown
11:55 AM 71.6 °F 59.0 °F 64% 29.64 in 10.0 mi SSW 19.6 mph 33.4 mph N/A   Unknown
12:15 PM 73.4 °F 59.0 °F 61% 29.62 in 10.0 mi South 28.8 mph 38.0 mph N/A   Unknown
12:35 PM 75.2 °F 60.8 °F 61% 29.61 in 10.0 mi South 21.9 mph 31.1 mph N/A   Unknown
12:55 PM 73.4 °F 59.0 °F 61% 29.60 in 10.0 mi South 24.2 mph 33.4 mph N/A   Unknown
1:15 PM 73.4 °F 59.0 °F 61% 29.60 in 10.0 mi SSW 26.5 mph 36.8 mph N/A   Unknown
1:35 PM 73.4 °F 60.8 °F 65% 29.59 in 10.0 mi SSW 20.7 mph 29.9 mph N/A   Unknown
1:55 PM 73.4 °F 60.8 °F 65% 29.58 in 10.0 mi SSW 21.9 mph 28.8 mph N/A   Unknown
2:15 PM 73.4 °F 60.8 °F 65% 29.57 in 10.0 mi SSW 19.6 mph 24.2 mph N/A   Unknown
2:35 PM 73.4 °F 62.6 °F 69% 29.56 in 10.0 mi SSW 18.4 mph 23.0 mph N/A   Unknown
2:55 PM 73.4 °F 62.6 °F 69% 29.54 in 10.0 mi South 16.1 mph 23.0 mph N/A   Unknown
3:15 PM 73.4 °F 62.6 °F 69% 29.54 in 10.0 mi SSW 16.1 mph 27.6 mph N/A   Unknown
3:35 PM 75.2 °F 62.6 °F 65% 29.53 in 10.0 mi SSW 19.6 mph 25.3 mph N/A   Unknown
3:55 PM 75.2 °F 62.6 °F 65% 29.52 in 10.0 mi South 18.4 mph 27.6 mph N/A   Unknown
4:15 PM 75.2 °F 62.6 °F 65% 29.51 in 9.0 mi South 19.6 mph 26.5 mph N/A   Unknown
4:35 PM 71.6 °F 64.4 °F 78% 29.51 in 5.0 mi SSW 17.3 mph - N/A   Haze
4:55 PM 68.0 °F 66.2 °F 94% 29.50 in 3.0 mi SSW 12.7 mph - N/A Rain Light Rain
5:15 PM 68.0 °F 66.2 °F 94% 29.49 in 9.0 mi SSW 9.2 mph - N/A Thunderstorm Unknown
5:35 PM 68.0 °F 66.2 °F 94% 29.48 in 6.0 mi SW 11.5 mph - N/A Rain Light Rain
5:55 PM 68.0 °F 66.2 °F 94% 29.46 in 4.0 mi WSW 6.9 mph - 0.01 in Rain , Thunderstorm Light Rain
6:15 PM 66.2 °F 66.2 °F 100% 29.46 in 0.2 mi WSW 18.4 mph 31.1 mph 0.05 in Fog , Thunderstorm Unknown
6:35 PM 68.0 °F 66.2 °F 94% 29.45 in 10.0 mi SW 13.8 mph - 0.05 in Thunderstorm Unknown
6:55 PM 66.2 °F 66.2 °F 100% 29.48 in 10.0 mi SW 12.7 mph - 0.05 in   Unknown
7:15 PM 66.2 °F 66.2 °F 100% 29.50 in 10.0 mi West 12.7 mph - N/A Thunderstorm Unknown
7:35 PM 66.2 °F 66.2 °F 100% 29.53 in 10.0 mi West 24.2 mph 33.4 mph N/A   Unknown
7:55 PM 62.6 °F 59.0 °F 88% 29.56 in 3.0 mi WNW 16.1 mph 27.6 mph 0.01 in Rain , Thunderstorm Light Thunderstorms and Rain
8:15 PM 60.8 °F 59.0 °F 94% 29.57 in 10.0 mi WNW 12.7 mph 19.6 mph N/A   Unknown
8:35 PM 60.8 °F 57.2 °F 88% 29.51 in 10.0 mi NNW 8.1 mph 18.4 mph N/A   Unknown
8:55 PM 60.8 °F 57.2 °F 88% 29.56 in 10.0 mi West 9.2 mph - N/A   Unknown
9:35 PM 59.0 °F 57.2 °F 94% 29.59 in 10.0 mi WNW 16.1 mph 23.0 mph N/A   Unknown
9:55 PM 59.0 °F 55.4 °F 88% 29.61 in 10.0 mi WNW 16.1 mph 20.7 mph N/A   Unknown
10:15 PM 59.0 °F 55.4 °F 88% 29.60 in 10.0 mi NW 13.8 mph 20.7 mph N/A   Unknown
10:55 PM 59.0 °F 50.0 °F 72% 29.64 in 10.0 mi NNW 11.5 mph 18.4 mph N/A   Unknown
11:15 PM 57.2 °F 51.8 °F 82% 29.66 in 10.0 mi NNW 6.9 mph - N/A   Unknown
11:35 PM 55.4 °F 51.8 °F 88% 29.67 in 10.0 mi NW 4.6 mph - N/A   Unknown
11:55 PM 55.4 °F 51.8 °F 88% 29.68 in 10.0 mi Calm Calm - N/A   Unknown